This is the latest recevied weather packets stored in our database for station/object K6CED. If no packets are shown the sender has not sent any weather packets the latest 10 day(s).
| Time | Temp. | Humidity | Pressure | Rain* | Wind** | Luminosity | Snow |
|---|---|---|---|---|---|---|---|
| 1777392759 | 14.44° C | 64% | 1020.2 hPa | 0 mm | - | 556 W/m² | - |
| 1777392455 | 15° C | 63% | 1020 hPa | 0 mm | - | 545 W/m² | - |
| 1777392151 | 13.89° C | 67% | 1020.3 hPa | 0 mm | - | 520 W/m² | - |
| 1777391846 | 13.89° C | 66% | 1020.4 hPa | 0 mm | - | 509 W/m² | - |
| 1777391541 | 13.89° C | 68% | 1020.3 hPa | 0 mm | - | 491 W/m² | - |
| 1777391238 | 13.33° C | 69% | 1020.4 hPa | 0 mm | - | 435 W/m² | - |
| 1777390935 | 12.78° C | 70% | 1020.5 hPa | 0 mm | - | 431 W/m² | - |
| 1777390631 | 12.78° C | 71% | 1020.4 hPa | 0 mm | - | 419 W/m² | - |
| 1777390328 | 12.22° C | 75% | 1020.3 hPa | 0 mm | - | 433 W/m² | - |
| 1777390023 | 11.67° C | 75% | 1020.5 hPa | 0 mm | - | 384 W/m² | - |
| 1777389721 | 11.67° C | 77% | 1020.5 hPa | 0 mm | - | 342 W/m² | - |
| 1777389417 | 11.11° C | 78% | 1020.4 hPa | 0 mm | - | 304 W/m² | - |
| 1777389115 | 10.56° C | 79% | 1020.4 hPa | 0 mm | - | 261 W/m² | - |
| 1777388812 | 10° C | 81% | 1020.5 hPa | 0 mm | - | 248 W/m² | - |
| 1777388509 | 10° C | 81% | 1020.5 hPa | 0 mm | - | 226 W/m² | - |
| 1777388204 | 9.44° C | 82% | 1020.5 hPa | 0 mm | - | 171 W/m² | - |
| 1777387894 | 9.44° C | 83% | 1020.4 hPa | 0 mm | - | 184 W/m² | - |
| 1777387591 | 8.89° C | 84% | 1020.2 hPa | 0 mm | - | 164 W/m² | - |
| 1777387286 | 8.33° C | 85% | 1020.4 hPa | 0 mm | - | 116 W/m² | - |
| 1777386981 | 7.78° C | 85% | 1020.3 hPa | 0 mm | - | 74 W/m² | - |
| 1777386679 | 7.78° C | 86% | 1020.4 hPa | 0 mm | - | 78 W/m² | - |
| 1777386375 | 7.22° C | 87% | 1020.3 hPa | 0 mm | - | 68 W/m² | - |
| 1777386073 | 7.22° C | 87% | 1020.1 hPa | 0 mm | - | 56 W/m² | - |
| 1777385769 | 7.22° C | 88% | 1020.2 hPa | 0 mm | - | 54 W/m² | - |
| 1777385466 | 6.67° C | 89% | 1020.4 hPa | 0 mm | - | 54 W/m² | - |
* Rain latest hour (hover to see other rain measurements)
** Current wind speed in m/s (hover to see current wind gust speed)